"startDT [UTC]","vpos","CH4 [ppm]","stdev(CH4) [ppm]","CO2 [ppm]","stdev(CO2) [ppm]","H2O_reported [%]","stdev(H2O_reported)","CavityPressure [torr]","CavityTemp [C]","OutletValve","CH4_dry [ppm]","CO2_dry [ppm]","DasTemp [C]","EtalonTemp [C]","WarmBoxTemp [C]","MPVPosition","T_ECpre [C]","T_EC1 [C]","T_EC2 [C]","p_inlet [hPa]","p_in [hPa]","p_out [hPa]","T_inlet [C]","RH_inlet [%]","dwpt_inlet [C]","T_vent [C]","RH_vent [%]","dwpt_vent [C]","flow_vent [l min-1]","flow_inlet [l min-1]","dwpt_sample [C]","T_room [C]"
2015-11-17 00:00:00,0.0,1.95737,0.00097,401.886,0.041,0.2882,0.0016,139.997,45.000,31865.46865,1.96297,403.290,35.809,45.069,45.001,0.00,0.09,-272.74,-272.80,-8,527,-961,21.3,8.8,-13.2,21.4,8.9,-13.0,5.73,2.05,-8.6,27.5
2015-11-17 00:01:00,0.0,1.95350,0.00116,401.753,0.046,0.2885,0.0015,139.999,45.000,31868.57037,1.95926,403.159,35.794,45.069,45.001,0.00,0.09,-272.74,-272.80,-8,527,-961,21.2,8.8,-13.2,21.4,8.8,-13.0,5.73,2.03,-8.6,27.6
2015-11-17 00:02:00,0.0,1.95207,0.00069,401.714,0.029,0.2887,0.0015,140.000,45.000,31867.24033,1.95760,403.121,35.785,45.069,45.001,0.00,0.09,-272.75,-272.80,-8,527,-961,21.3,8.8,-13.2,21.4,8.8,-13.0,5.73,2.02,-8.6,27.5
2015-11-17 00:03:00,0.0,1.95243,0.00043,401.759,0.033,0.2886,0.0014,139.997,45.000,31864.18392,1.95805,403.162,35.794,45.069,45.001,0.00,0.09,-272.74,-272.80,-8,527,-961,21.3,8.8,-13.2,21.4,8.8,-13.0,5.73,2.00,-8.6,27.5
2015-11-17 00:04:00,0.0,1.95278,0.00049,401.765,0.058,0.2882,0.0022,140.000,45.000,31866.56603,1.95836,403.170,35.786,45.069,45.000,0.00,0.09,-272.74,-272.80,-8,527,-961,21.3,8.8,-13.2,21.4,8.8,-13.0,5.73,1.97,-8.6,27.5
2015-11-17 00:05:00,0.0,1.95342,0.00071,401.803,0.048,0.2888,0.0018,139.999,45.000,31868.06627,1.95899,403.209,35.804,45.069,45.000,0.00,0.09,-272.74,-272.80,-8,527,-961,21.3,8.8,-13.2,21.4,8.8,-13.0,5.73,1.96,-8.6,27.6
2015-11-17 00:06:00,0.0,1.95218,0.00053,401.778,0.027,0.2898,0.0019,139.999,45.000,31867.72637,1.95785,403.189,35.828,45.069,45.000,0.00,0.09,-272.75,-272.81,-8,527,-961,21.3,8.8,-13.2,21.4,8.8,-13.0,5.73,1.95,-8.6,27.6
2015-11-17 00:07:00,0.0,1.95231,0.00029,401.757,0.030,0.2897,0.0015,140.001,45.000,31867.97160,1.95790,403.168,35.871,45.068,45.000,0.00,0.09,-272.74,-272.80,-8,527,-961,21.3,8.8,-13.2,21.4,8.9,-13.0,5.73,1.95,-8.6,27.6
2015-11-17 00:08:00,0.0,1.95312,0.00041,401.801,0.032,0.2895,0.0012,139.999,45.000,31868.28406,1.95870,403.210,35.889,45.068,44.999,0.00,0.09,-272.74,-272.80,-8,527,-961,21.3,8.8,-13.2,21.4,8.9,-13.0,5.73,1.94,-8.6,27.6
2015-11-17 00:09:00,0.0,1.95405,0.00055,401.795,0.033,0.2902,0.0017,139.997,45.000,31866.20461,1.95965,403.208,35.907,45.068,45.000,0.00,0.09,-272.74,-272.80,-8,527,-961,21.3,8.8,-13.2,21.4,8.8,-13.0,5.73,1.96,-8.6,27.6
2015-11-17 00:10:00,0.0,1.95481,0.00042,401.800,0.028,0.2899,0.0016,140.000,45.000,31868.73168,1.96042,403.211,35.912,45.068,44.999,0.00,0.09,-272.74,-272.80,-8,527,-961,21.3,8.8,-13.2,21.4,8.8,-13.0,5.73,1.98,-8.6,27.6
2015-11-17 00:11:00,0.0,1.95477,0.00049,401.807,0.035,0.2908,0.0018,139.998,45.000,31868.23841,1.96036,403.223,35.905,45.068,44.999,0.00,0.09,-272.74,-272.80,-8,527,-961,21.2,8.8,-13.2,21.4,8.8,-13.0,5.73,2.00,-8.6,27.6
2015-11-17 00:12:00,0.0,1.95568,0.00038,401.812,0.032,0.2894,0.0015,140.000,45.000,31868.74494,1.96130,403.222,35.882,45.068,45.000,0.00,0.09,-272.75,-272.81,-8,527,-961,21.3,8.8,-13.1,21.4,8.8,-13.0,5.73,2.03,-8.6,27.6
2015-11-17 00:13:00,0.0,1.95555,0.00061,401.831,0.026,0.2901,0.0017,139.999,45.000,31869.32352,1.96120,403.244,35.885,45.068,45.000,0.00,0.09,-272.75,-272.81,-8,527,-961,21.3,8.8,-13.1,21.4,8.8,-13.0,5.73,2.05,-8.6,27.6
2015-11-17 00:14:00,0.0,1.95500,0.00048,401.817,0.036,0.2904,0.0017,139.999,45.000,31871.84303,1.96065,403.232,35.898,45.068,45.000,0.00,0.09,-272.74,-272.80,-8,527,-961,21.3,8.8,-13.2,21.5,8.8,-13.0,5.73,2.05,-8.6,27.6
2015-11-17 00:15:00,0.0,1.95510,0.00049,401.810,0.032,0.2897,0.0020,139.999,45.000,31870.16754,1.96069,403.220,35.906,45.069,45.000,0.00,0.09,-272.74,-272.81,-8,527,-961,21.3,8.8,-13.2,21.4,8.9,-12.9,5.73,2.05,-8.6,27.6
2015-11-17 00:16:00,0.0,1.95688,0.00065,401.829,0.041,0.2906,0.0021,140.000,45.000,31868.68706,1.96245,403.243,35.934,45.069,45.000,0.00,0.09,-272.75,-272.81,-8,527,-961,21.3,8.8,-13.2,21.4,8.9,-12.9,5.73,2.04,-8.6,27.6
2015-11-17 00:17:00,0.0,1.95806,0.00056,401.856,0.029,0.2906,0.0016,139.999,45.000,31867.61212,1.96369,403.270,35.934,45.068,45.000,0.00,0.09,-272.74,-272.80,-8,527,-961,21.3,8.8,-13.2,21.5,8.9,-12.9,5.73,2.02,-8.5,27.6
2015-11-17 00:18:00,0.0,1.95695,0.00066,401.851,0.030,0.2902,0.0018,139.998,45.000,31868.47430,1.96265,403.266,35.935,45.068,45.000,0.00,0.09,-272.74,-272.80,-8,527,-961,21.3,8.8,-13.1,21.5,8.8,-13.0,5.73,2.00,-8.5,27.6
2015-11-17 00:19:00,0.0,1.95636,0.00044,401.822,0.031,0.2914,0.0019,139.999,45.000,31869.15249,1.96203,403.241,35.938,45.068,45.000,0.00,0.09,-272.74,-272.80,-8,527,-961,21.3,8.8,-13.1,21.4,8.9,-13.0,5.73,1.98,-8.5,27.6
2015-11-17 00:20:00,0.0,1.95626,0.00043,401.843,0.030,0.2913,0.0021,139.999,45.000,31868.88757,1.96189,403.262,35.907,45.068,45.000,0.00,0.09,-272.73,-272.80,-8,527,-961,21.3,8.8,-13.1,21.4,8.8,-13.0,5.73,1.96,-8.6,27.6
2015-11-17 00:21:00,0.0,1.95688,0.00043,401.860,0.036,0.2902,0.0016,139.999,45.000,31869.51211,1.96251,403.273,35.911,45.068,45.000,0.00,0.09,-272.74,-272.80,-8,527,-961,21.3,8.8,-13.1,21.4,8.9,-12.9,5.73,1.95,-8.5,27.6
2015-11-17 00:22:00,0.0,1.95689,0.00051,401.867,0.032,0.2910,0.0016,140.001,45.000,31870.75247,1.96250,403.285,35.916,45.068,45.000,0.00,0.09,-272.74,-272.80,-8,527,-961,21.3,8.8,-13.1,21.5,8.9,-12.9,5.73,1.95,-8.5,27.6
2015-11-17 00:23:00,0.0,1.95746,0.00047,401.887,0.033,0.2901,0.0020,140.001,45.000,31870.30683,1.96313,403.301,35.936,45.069,45.000,0.00,0.09,-272.74,-272.81,-8,527,-961,21.3,8.8,-13.1,21.4,8.8,-13.0,5.73,1.94,-8.5,27.6
2015-11-17 00:24:00,0.0,1.95694,0.00064,401.833,0.019,0.2910,0.0022,139.999,45.000,31872.71759,1.96259,403.250,35.938,45.068,45.000,0.00,0.09,-272.74,-272.80,-8,528,-961,21.3,8.8,-13.1,21.5,8.8,-13.0,5.73,1.95,-8.5,27.6
2015-11-17 00:25:00,0.0,1.95559,0.00083,401.796,0.044,0.2903,0.0016,139.998,45.000,31871.88322,1.96118,403.211,35.938,45.068,45.000,0.00,0.09,-272.74,-272.80,-8,527,-961,21.3,8.8,-13.1,21.4,8.8,-13.0,5.73,1.97,-8.5,27.6
2015-11-17 00:26:00,0.0,1.95505,0.00070,401.763,0.035,0.2900,0.0015,139.996,45.000,31869.89291,1.96072,403.176,35.937,45.068,45.000,0.00,0.09,-272.75,-272.80,-8,528,-961,21.3,8.8,-13.2,21.5,8.8,-13.0,5.73,1.99,-8.5,27.6
2015-11-17 00:27:00,0.0,1.95577,0.00047,401.769,0.033,0.2892,0.0012,140.001,45.000,31871.14344,1.96138,403.178,35.934,45.068,45.000,0.00,0.09,-272.75,-272.80,-8,528,-961,21.3,8.8,-13.2,21.5,8.8,-13.0,5.73,2.01,-8.5,27.7
2015-11-17 00:28:00,0.0,1.95791,0.00098,401.780,0.041,0.2896,0.0021,139.999,45.000,31871.39183,1.96339,403.189,35.903,45.069,45.000,0.00,0.09,-272.75,-272.79,-8,527,-961,21.3,8.8,-13.1,21.5,8.8,-13.0,5.73,2.05,-8.5,27.7
2015-11-17 00:29:00,0.0,1.96017,0.00035,401.829,0.032,0.2897,0.0012,139.998,45.000,31872.31356,1.96579,403.240,35.877,45.069,45.000,0.00,0.09,-272.75,-272.80,-8,527,-961,21.3,8.8,-13.2,21.5,8.8,-13.0,5.73,2.06,-8.5,27.6
2015-11-17 00:30:00,0.0,1.96032,0.00076,401.814,0.034,0.2890,0.0021,139.998,45.000,31872.57712,1.96598,403.221,35.871,45.069,45.001,0.00,0.09,-272.75,-272.80,-8,528,-961,21.3,8.8,-13.2,21.5,8.8,-13.0,5.73,2.06,-8.5,27.6
2015-11-17 00:31:00,0.0,1.95889,0.00050,401.820,0.035,0.2904,0.0015,139.997,45.000,31873.04120,1.96452,403.234,35.840,45.069,45.001,0.00,0.09,-272.74,-272.80,-8,527,-961,21.3,8.8,-13.2,21.5,8.8,-13.0,5.73,2.04,-8.5,27.7
2015-11-17 00:32:00,0.0,1.95861,0.00063,401.805,0.029,0.2909,0.0014,139.998,45.000,31874.02220,1.96425,403.221,35.820,45.069,45.001,0.00,0.09,-272.74,-272.80,-8,528,-961,21.3,8.8,-13.2,21.5,8.8,-13.0,5.73,2.03,-8.5,27.6
2015-11-17 00:33:00,0.0,1.95925,0.00077,401.821,0.035,0.2908,0.0019,139.999,45.000,31874.99725,1.96488,403.238,35.815,45.069,45.001,0.00,0.09,-272.75,-272.81,-8,528,-961,21.3,8.8,-13.1,21.5,8.9,-12.9,5.73,2.00,-8.5,27.7
2015-11-17 00:34:00,0.0,1.96005,0.00060,401.842,0.024,0.2909,0.0022,139.999,45.000,31873.61857,1.96567,403.257,35.816,45.069,45.001,0.00,0.09,-272.74,-272.81,-8,528,-961,21.3,8.8,-13.1,21.5,8.8,-13.0,5.73,1.98,-8.5,27.7
2015-11-17 00:35:00,0.0,1.96171,0.00114,401.844,0.031,0.2918,0.0014,139.999,45.000,31873.74157,1.96737,403.266,35.814,45.069,45.001,0.00,0.09,-272.74,-272.80,-8,528,-962,21.3,8.8,-13.1,21.5,8.8,-12.9,5.73,1.97,-8.5,27.7
2015-11-17 00:36:00,0.0,1.96106,0.00077,401.841,0.033,0.2913,0.0015,139.997,45.000,31873.61770,1.96678,403.261,35.828,45.069,45.001,0.00,0.09,-272.74,-272.81,-8,528,-962,21.3,8.8,-13.1,21.5,8.9,-12.9,5.73,1.94,-8.5,27.7
2015-11-17 00:37:00,0.0,1.96058,0.00076,401.845,0.037,0.2905,0.0019,139.998,45.000,31872.91731,1.96618,403.259,35.859,45.069,45.000,0.00,0.09,-272.74,-272.80,-8,528,-961,21.3,8.8,-13.1,21.5,8.9,-12.9,5.73,1.93,-8.5,27.7
2015-11-17 00:38:00,0.0,1.95985,0.00069,401.814,0.039,0.2911,0.0018,139.999,45.000,31874.13358,1.96560,403.233,35.864,45.069,45.000,0.00,0.09,-272.73,-272.80,-8,528,-961,21.4,8.8,-13.1,21.5,8.9,-12.8,5.73,1.94,-8.5,27.7
2015-11-17 00:39:00,0.0,1.95914,0.00045,401.837,0.035,0.2914,0.0014,139.996,45.000,31872.34459,1.96481,403.256,35.873,45.068,45.000,0.00,0.09,-272.74,-272.81,-8,528,-962,21.3,8.8,-13.1,21.5,8.8,-12.9,5.73,1.95,-8.5,27.7
2015-11-17 00:40:00,0.0,1.95782,0.00090,401.816,0.029,0.2913,0.0017,139.998,45.000,31873.05110,1.96352,403.235,35.867,45.068,45.000,0.00,0.09,-272.75,-272.80,-8,528,-961,21.3,8.8,-13.1,21.5,8.8,-12.9,5.73,1.97,-8.5,27.7
2015-11-17 00:41:00,0.0,1.95734,0.00099,401.773,0.030,0.2920,0.0020,139.999,45.000,31873.46987,1.96298,403.194,35.866,45.068,45.000,0.00,0.09,-272.74,-272.79,-8,528,-961,21.3,8.8,-13.1,21.5,8.9,-12.9,5.73,2.00,-8.5,27.7
2015-11-17 00:42:00,0.0,1.95892,0.00050,401.771,0.042,0.2935,0.0016,139.999,45.000,31875.68234,1.96457,403.200,35.872,45.068,45.000,0.00,0.09,-272.74,-272.80,-8,528,-962,21.3,8.8,-13.0,21.5,8.9,-12.8,5.73,2.03,-8.5,27.7
2015-11-17 00:43:00,0.0,1.95909,0.00051,401.806,0.036,0.2931,0.0014,139.999,45.000,31876.33687,1.96480,403.233,35.877,45.068,45.000,0.00,0.09,-272.75,-272.80,-8,528,-961,21.4,8.8,-13.1,21.5,8.9,-12.8,5.73,2.04,-8.5,27.7
2015-11-17 00:44:00,0.0,1.95937,0.00041,401.817,0.033,0.2936,0.0016,139.997,45.000,31875.82521,1.96508,403.248,35.887,45.068,45.000,0.00,0.09,-272.74,-272.80,-8,528,-962,21.3,8.9,-13.0,21.5,8.9,-12.9,5.73,2.06,-8.5,27.7
2015-11-17 00:45:00,0.0,1.95871,0.00057,401.822,0.032,0.2936,0.0016,139.998,45.000,31874.87694,1.96442,403.252,35.926,45.068,45.000,0.00,0.09,-272.74,-272.79,-8,528,-961,21.4,8.8,-13.1,21.5,8.9,-12.8,5.73,2.06,-8.5,27.7
2015-11-17 00:46:00,0.0,1.95760,0.00076,401.804,0.034,0.2931,0.0015,140.000,45.000,31875.87538,1.96329,403.233,35.938,45.068,45.000,0.00,0.09,-272.75,-272.80,-8,528,-962,21.4,8.8,-13.0,21.5,8.9,-12.8,5.73,2.05,-8.5,27.7
2015-11-17 00:47:00,0.0,1.95735,0.00129,401.777,0.036,0.2936,0.0011,139.998,45.000,31875.95662,1.96317,403.207,35.938,45.068,45.000,0.00,0.09,-272.75,-272.80,-8,528,-962,21.4,8.8,-13.0,21.5,8.9,-12.8,5.73,2.02,-8.5,27.7
2015-11-17 00:48:00,0.0,1.95519,0.00038,401.732,0.032,0.2944,0.0013,140.001,45.000,31876.26455,1.96089,403.164,35.941,45.068,45.000,0.00,0.09,-272.73,-272.80,-8,528,-961,21.4,8.8,-13.0,21.5,8.9,-12.9,5.73,1.99,-8.5,27.7
2015-11-17 00:49:00,0.0,1.95635,0.00044,401.758,0.032,0.2947,0.0015,139.998,45.000,31874.31867,1.96202,403.193,35.944,45.068,45.000,0.00,0.09,-272.74,-272.80,-8,528,-962,21.4,8.9,-13.0,21.5,8.9,-12.8,5.73,1.95,-8.5,27.6
2015-11-17 00:50:00,0.0,1.95692,0.00038,401.754,0.029,0.2938,0.0021,140.000,45.000,31875.51030,1.96261,403.185,35.950,45.068,45.000,0.00,0.09,-272.74,-272.81,-8,528,-962,21.4,8.8,-13.0,21.5,8.9,-12.8,5.73,1.94,-8.4,27.7
2015-11-17 00:51:00,0.0,1.95748,0.00035,401.762,0.025,0.2932,0.0017,140.001,45.000,31875.69509,1.96317,403.190,35.949,45.068,45.000,0.00,0.09,-272.74,-272.80,-8,528,-962,21.4,8.8,-13.0,21.5,8.9,-12.8,5.73,1.93,-8.5,27.7
2015-11-17 00:52:00,0.0,1.95797,0.00035,401.735,0.027,0.2932,0.0017,139.998,45.000,31875.79019,1.96365,403.164,35.955,45.068,45.000,0.00,0.09,-272.74,-272.80,-8,528,-962,21.4,8.8,-13.1,21.5,8.9,-12.9,5.73,1.94,-8.5,27.7
2015-11-17 00:53:00,0.0,1.95723,0.00044,401.740,0.020,0.2932,0.0018,140.000,45.000,31876.73519,1.96295,403.166,35.981,45.068,45.000,0.00,0.09,-272.75,-272.81,-8,528,-962,21.4,8.8,-13.0,21.5,8.9,-12.8,5.73,1.96,-8.5,27.7
2015-11-17 00:54:00,0.0,1.95750,0.00085,401.763,0.033,0.2925,0.0015,139.998,45.000,31874.67916,1.96320,403.189,35.998,45.068,45.000,0.00,0.09,-272.74,-272.80,-8,528,-962,21.4,8.8,-13.0,21.5,8.9,-12.8,5.73,1.98,-8.4,27.7
2015-11-17 00:55:00,0.0,1.95766,0.00041,401.756,0.034,0.2930,0.0015,139.998,45.000,31875.18438,1.96330,403.182,36.001,45.068,45.000,0.00,0.09,-272.74,-272.80,-8,528,-962,21.4,8.8,-13.1,21.6,8.9,-12.8,5.73,2.01,-8.4,27.7
2015-11-17 00:56:00,0.0,1.95822,0.00045,401.760,0.034,0.2931,0.0019,139.998,45.000,31875.41786,1.96393,403.188,36.001,45.068,45.000,0.00,0.09,-272.75,-272.80,-8,528,-962,21.4,8.8,-13.0,21.5,8.9,-12.9,5.73,2.02,-8.4,27.7
2015-11-17 00:57:00,0.0,1.95524,0.00114,401.746,0.045,0.2943,0.0014,140.001,45.000,31878.13948,1.96105,403.178,36.000,45.068,45.000,0.00,0.09,-272.75,-272.81,-8,528,-962,21.4,8.9,-13.0,21.5,8.9,-12.8,5.73,2.05,-8.4,27.7
2015-11-17 00:58:00,0.0,1.95570,0.00144,401.733,0.036,0.2962,0.0018,139.997,45.000,31879.78847,1.96138,403.176,35.999,45.068,45.000,0.00,0.09,-272.74,-272.79,-8,528,-962,21.4,8.9,-12.9,21.5,9.0,-12.7,5.73,2.05,-8.4,27.7
2015-11-17 00:59:00,0.0,1.95715,0.00062,401.744,0.034,0.2967,0.0015,139.998,45.000,31878.92534,1.96290,403.188,35.981,45.068,45.000,0.00,0.09,-272.74,-272.80,-8,528,-962,21.4,8.9,-12.9,21.5,9.0,-12.7,5.73,2.05,-8.4,27.7
2015-11-17 01:00:00,0.0,1.95616,0.00048,401.773,0.039,0.2974,0.0014,139.999,45.000,31877.74911,1.96192,403.221,35.947,45.069,45.000,0.00,0.09,-272.74,-272.80,-8,528,-962,21.4,8.9,-12.9,21.5,9.0,-12.7,5.73,2.04,-8.4,27.7
2015-11-17 01:01:00,0.0,1.95664,0.00046,401.769,0.027,0.2973,0.0017,140.000,45.000,31880.08919,1.96239,403.216,35.958,45.069,45.000,0.00,0.09,-272.74,-272.80,-8,528,-962,21.4,8.9,-12.9,21.5,9.0,-12.7,5.73,2.01,-8.4,27.7
2015-11-17 01:02:00,0.0,1.95564,0.00126,401.740,0.037,0.2966,0.0020,139.998,45.000,31879.28130,1.96149,403.185,36.000,45.069,45.000,0.00,0.09,-272.74,-272.80,-8,528,-962,21.5,8.9,-12.9,21.5,9.0,-12.7,5.73,1.99,-8.4,27.7
2015-11-17 01:03:00,0.0,1.95498,0.00099,401.733,0.030,0.3028,0.0022,139.997,45.000,31877.14312,1.96083,403.207,36.038,45.069,45.000,0.00,0.09,-272.74,-272.81,-8,528,-962,21.4,9.1,-12.7,21.5,9.1,-12.6,5.73,1.96,-8.4,27.7
2015-11-17 01:04:00,0.0,1.95562,0.00076,401.719,0.027,0.3040,0.0017,140.001,45.000,31879.56599,1.96150,403.200,36.061,45.068,45.000,0.00,0.09,-272.74,-272.80,-8,528,-961,21.4,9.1,-12.6,21.6,9.1,-12.5,5.73,1.94,-8.4,27.7
2015-11-17 01:05:00,0.0,1.95528,0.00048,401.729,0.029,0.3033,0.0018,139.996,45.000,31877.87474,1.96121,403.206,36.066,45.068,45.000,0.00,0.09,-272.74,-272.79,-8,528,-962,21.4,9.1,-12.6,21.6,9.2,-12.4,5.73,1.92,-8.4,27.8
2015-11-17 01:06:00,0.0,1.95381,0.00062,401.727,0.029,0.3084,0.0021,139.998,45.000,31878.03054,1.95982,403.229,36.114,45.068,44.999,0.00,0.09,-272.75,-272.80,-8,528,-962,21.5,9.2,-12.4,21.6,9.2,-12.3,5.73,1.93,-8.4,27.8
2015-11-17 01:07:00,0.0,1.95341,0.00066,401.712,0.034,0.3119,0.0020,139.998,45.000,31878.26547,1.95945,403.230,36.123,45.068,44.999,0.00,0.09,-272.75,-272.80,-8,528,-962,21.4,9.3,-12.3,21.6,9.4,-12.2,5.73,1.95,-8.4,27.7
2015-11-17 01:08:00,0.0,1.95311,0.00049,401.730,0.028,0.3135,0.0022,140.000,45.000,31878.13570,1.95920,403.259,36.122,45.068,44.999,0.00,0.09,-272.75,-272.80,-8,528,-962,21.4,9.4,-12.3,21.6,9.4,-12.1,5.73,1.99,-8.4,27.7
2015-11-17 01:09:00,0.0,1.95247,0.00047,401.740,0.034,0.3152,0.0013,140.001,45.000,31881.77909,1.95860,403.275,36.118,45.068,44.999,0.00,0.09,-272.75,-272.80,-8,528,-962,21.4,9.4,-12.2,21.6,9.5,-12.0,5.73,2.05,-8.4,27.7
2015-11-17 01:10:00,0.0,1.95181,0.00045,401.725,0.031,0.3167,0.0022,139.998,45.000,31881.32858,1.95794,403.267,36.119,45.068,45.000,0.00,0.09,-272.75,-272.80,-8,528,-961,21.5,9.5,-12.1,21.6,9.5,-12.0,5.73,2.07,-8.4,27.7
2015-11-17 01:11:00,0.0,1.95186,0.00047,401.747,0.030,0.3179,0.0019,139.995,45.000,31879.86319,1.95805,403.297,36.113,45.068,45.000,0.00,0.09,-272.74,-272.80,-8,528,-962,21.5,9.5,-12.1,21.6,9.5,-11.9,5.73,2.07,-8.4,27.8
2015-11-17 01:12:00,0.0,1.95223,0.00051,401.740,0.032,0.3193,0.0014,139.998,45.000,31880.29391,1.95836,403.297,36.124,45.068,45.000,0.00,0.09,-272.74,-272.80,-8,528,-962,21.5,9.5,-12.0,21.6,9.6,-11.9,5.73,2.04,-8.4,27.8
2015-11-17 01:13:00,0.0,1.95211,0.00041,401.744,0.030,0.3190,0.0021,139.999,45.000,31881.78802,1.95831,403.298,36.123,45.068,45.000,0.00,0.09,-272.74,-272.81,-8,528,-962,21.5,9.5,-12.0,21.6,9.6,-11.9,5.73,2.01,-8.4,27.8
2015-11-17 01:14:00,0.0,1.95200,0.00037,401.683,0.044,0.3191,0.0015,139.995,45.000,31882.05096,1.95819,403.238,36.124,45.068,45.000,0.00,0.09,-272.74,-272.80,-8,528,-962,21.5,9.5,-12.0,21.6,9.6,-11.9,5.73,1.96,-8.4,27.8
2015-11-17 01:15:00,0.0,1.95205,0.00073,401.686,0.031,0.3207,0.0014,139.996,45.000,31883.42352,1.95822,403.248,36.123,45.069,45.000,0.00,0.09,-272.73,-272.80,-9,528,-962,21.4,9.6,-12.0,21.6,9.6,-11.8,5.73,1.93,-8.4,27.7
2015-11-17 01:16:00,0.0,1.95344,0.00054,401.708,0.027,0.3203,0.0011,139.997,45.000,31883.41392,1.95965,403.270,36.076,45.069,45.000,0.00,0.09,-272.74,-272.81,-8,528,-962,21.5,9.5,-12.0,21.6,9.6,-11.8,5.73,1.92,-8.4,27.8
2015-11-17 01:17:00,0.0,1.95302,0.00039,401.721,0.029,0.3194,0.0018,139.999,45.000,31883.70067,1.95921,403.277,36.069,45.069,45.001,0.00,0.09,-272.74,-272.81,-8,528,-962,21.5,9.5,-12.0,21.6,9.6,-11.9,5.73,1.92,-8.4,27.8
2015-11-17 01:18:00,0.0,1.95225,0.00061,401.716,0.031,0.3212,0.0016,139.999,45.000,31884.10277,1.95853,403.281,36.062,45.069,45.001,0.00,0.09,-272.74,-272.80,-9,528,-962,21.5,9.5,-12.0,21.6,9.6,-11.8,5.73,1.97,-8.4,27.8
2015-11-17 01:19:00,0.0,1.95201,0.00036,401.695,0.027,0.3222,0.0018,139.997,45.000,31884.01478,1.95826,403.266,36.063,45.069,45.000,0.00,0.09,-272.74,-272.80,-9,528,-962,21.5,9.6,-11.9,21.6,9.6,-11.8,5.73,2.01,-8.4,27.8
2015-11-17 01:20:00,0.0,1.95161,0.00035,401.615,0.052,0.3233,0.0021,140.001,45.000,31883.81981,1.95790,403.193,36.058,45.069,45.001,0.00,0.09,-272.75,-272.80,-9,528,-961,21.5,9.6,-11.9,21.6,9.7,-11.8,5.73,2.05,-8.4,27.8
2015-11-17 01:21:00,0.0,1.95151,0.00050,401.584,0.031,0.3249,0.0016,140.000,45.000,31884.43974,1.95778,403.166,36.004,45.069,45.001,0.00,0.09,-272.74,-272.80,-9,528,-962,21.5,9.7,-11.8,21.6,9.7,-11.7,5.73,2.07,-8.4,27.8
2015-11-17 01:22:00,0.0,1.95199,0.00028,401.629,0.037,0.3250,0.0021,139.999,45.000,31883.67790,1.95830,403.213,35.999,45.069,45.001,0.00,0.09,-272.74,-272.80,-8,528,-962,21.5,9.7,-11.8,21.6,9.7,-11.6,5.73,2.07,-8.4,27.8
2015-11-17 01:23:00,0.0,1.95175,0.00054,401.624,0.028,0.3257,0.0014,139.999,45.000,31883.67989,1.95807,403.210,35.995,45.069,45.001,0.00,0.09,-272.75,-272.80,-8,528,-962,21.5,9.7,-11.8,21.6,9.7,-11.6,5.73,2.03,-8.4,27.8
2015-11-17 01:24:00,0.0,1.95164,0.00031,401.612,0.034,0.3277,0.0019,139.997,45.000,31882.35236,1.95800,403.210,35.997,45.069,45.000,0.00,0.09,-272.75,-272.81,-8,528,-962,21.5,9.7,-11.8,21.6,9.8,-11.6,5.73,1.98,-8.4,27.8
2015-11-17 01:25:00,0.0,1.95187,0.00032,401.626,0.035,0.3275,0.0016,139.997,45.000,31882.60657,1.95821,403.223,36.002,45.069,45.001,0.00,0.09,-272.74,-272.80,-8,528,-962,21.5,9.7,-11.7,21.6,9.8,-11.6,5.73,1.94,-8.3,27.8
2015-11-17 01:26:00,0.0,1.95347,0.00095,401.665,0.044,0.3271,0.0016,140.002,45.000,31883.93795,1.95972,403.257,36.040,45.069,45.000,0.00,0.09,-272.74,-272.80,-8,528,-962,21.5,9.7,-11.8,21.6,9.8,-11.6,5.73,1.91,-8.4,27.8
2015-11-17 01:27:00,0.0,1.95259,0.00179,401.675,0.104,0.3269,0.0016,140.001,45.000,31886.19353,1.95905,403.274,36.060,45.069,45.000,0.00,0.09,-272.74,-272.81,-8,528,-962,21.5,9.7,-11.8,21.6,9.8,-11.6,5.73,1.92,-8.4,27.8
2015-11-17 01:28:00,0.0,1.95118,0.00036,401.482,0.060,0.3275,0.0017,139.999,45.000,31886.22380,1.95750,403.077,36.063,45.068,45.000,0.00,0.09,-272.74,-272.80,-8,528,-962,21.5,9.7,-11.7,21.7,9.8,-11.5,5.73,1.95,-8.3,27.8
2015-11-17 01:29:00,0.0,1.95095,0.00044,401.373,0.111,0.3292,0.0021,139.998,45.000,31886.90222,1.95737,402.980,36.098,45.068,45.000,0.00,0.09,-272.74,-272.80,-8,528,-962,21.5,9.8,-11.7,21.6,9.8,-11.5,5.73,1.99,-8.3,27.8
2015-11-17 01:30:00,0.0,1.95038,0.00036,401.158,0.041,0.3302,0.0015,139.998,45.000,31886.60546,1.95676,402.767,36.128,45.068,44.999,0.00,0.09,-272.75,-272.81,-8,528,-962,21.5,9.8,-11.6,21.7,9.8,-11.5,5.73,2.05,-8.3,27.8
2015-11-17 01:31:00,0.0,1.95091,0.00040,401.252,0.058,0.3302,0.0014,140.001,45.000,31886.81791,1.95730,402.858,36.165,45.068,44.999,0.00,0.09,-272.74,-272.80,-8,528,-962,21.5,9.8,-11.6,21.6,9.9,-11.5,5.73,2.07,-8.3,27.8
2015-11-17 01:32:00,0.0,1.95074,0.00039,401.321,0.049,0.3299,0.0013,140.000,45.000,31886.04964,1.95713,402.927,36.187,45.068,44.999,0.00,0.09,-272.74,-272.80,-8,528,-962,21.5,9.8,-11.6,21.6,9.9,-11.5,5.73,2.06,-8.3,27.8
2015-11-17 01:33:00,0.0,1.95036,0.00062,401.214,0.135,0.3308,0.0015,139.998,45.000,31884.32351,1.95682,402.830,36.196,45.068,44.999,0.00,0.09,-272.74,-272.81,-8,528,-962,21.5,9.8,-11.6,21.7,9.9,-11.4,5.73,2.04,-8.3,27.8
2015-11-17 01:34:00,0.0,1.94907,0.00055,400.949,0.044,0.3329,0.0013,140.000,45.000,31885.92480,1.95552,402.570,36.219,45.068,44.999,0.00,0.09,-272.75,-272.80,-8,528,-962,21.6,9.9,-11.5,21.7,9.9,-11.4,5.73,2.00,-8.3,27.8
2015-11-17 01:35:00,0.0,1.94935,0.00041,400.958,0.038,0.3346,0.0024,139.998,45.000,31882.64676,1.95585,402.588,36.241,45.068,44.999,0.00,0.09,-272.73,-272.80,-8,528,-962,21.5,9.9,-11.5,21.6,9.9,-11.4,5.73,1.96,-8.3,27.9
2015-11-17 01:36:00,0.0,1.94798,0.00024,400.771,0.044,0.3360,0.0015,139.999,45.000,31884.90119,1.95449,402.406,36.238,45.068,44.999,0.00,0.09,-272.74,-272.80,-8,528,-962,21.5,9.9,-11.5,21.7,10.0,-11.3,5.73,1.92,-8.3,27.8
2015-11-17 01:37:00,0.0,1.94826,0.00028,400.786,0.043,0.3373,0.0013,140.000,45.000,31886.13928,1.95480,402.429,36.209,45.068,44.999,0.00,0.09,-272.74,-272.80,-8,528,-962,21.6,10.0,-11.4,21.7,10.0,-11.3,5.73,1.92,-8.3,27.8
2015-11-17 01:38:00,0.0,1.94785,0.00031,400.701,0.047,0.3375,0.0017,139.999,45.000,31885.05065,1.95439,402.344,36.165,45.068,45.000,0.00,0.09,-272.74,-272.80,-8,528,-962,21.6,10.0,-11.4,21.7,10.0,-11.2,5.73,1.93,-8.3,27.8
2015-11-17 01:39:00,0.0,1.94751,0.00034,400.629,0.050,0.3387,0.0019,139.998,45.000,31884.91619,1.95405,402.275,36.133,45.069,45.000,0.00,0.09,-272.74,-272.80,-8,528,-962,21.6,10.0,-11.3,21.7,10.1,-11.2,5.73,1.98,-8.3,27.8
2015-11-17 01:40:00,0.0,1.94736,0.00035,400.612,0.035,0.3396,0.0014,139.998,45.000,31884.06158,1.95395,402.265,36.117,45.069,45.001,0.00,0.09,-272.75,-272.80,-8,528,-962,21.6,10.1,-11.3,21.7,10.1,-11.2,5.73,2.02,-8.3,27.9
2015-11-17 01:41:00,0.0,1.94746,0.00042,400.593,0.037,0.3405,0.0018,140.000,45.000,31883.19766,1.95403,402.247,36.077,45.069,45.001,0.00,0.09,-272.75,-272.80,-8,528,-962,21.6,10.1,-11.3,21.7,10.1,-11.2,5.73,2.06,-8.3,27.8
2015-11-17 01:42:00,0.0,1.94748,0.00027,400.606,0.030,0.3410,0.0020,139.999,45.000,31883.68898,1.95410,402.265,36.064,45.069,45.001,0.00,0.09,-272.73,-272.79,-9,528,-962,21.5,10.1,-11.3,21.6,10.1,-11.2,5.73,2.08,-8.3,27.9
2015-11-17 01:43:00,0.0,1.94719,0.00039,400.603,0.037,0.3412,0.0014,140.002,45.000,31886.78744,1.95377,402.264,36.063,45.069,45.001,0.00,0.09,-272.74,-272.80,-9,528,-962,21.5,10.1,-11.3,21.7,10.1,-11.1,5.73,2.06,-8.3,27.9
2015-11-17 01:44:00,0.0,1.94711,0.00038,400.606,0.050,0.3415,0.0017,140.000,45.000,31886.39926,1.95373,402.264,36.087,45.069,45.001,0.00,0.09,-272.75,-272.81,-9,528,-962,21.6,10.1,-11.2,21.7,10.1,-11.1,5.73,2.02,-8.3,27.9
2015-11-17 01:45:00,0.0,1.94732,0.00048,400.590,0.049,0.3409,0.0017,139.999,45.000,31885.32241,1.95391,402.249,36.114,45.069,45.000,0.00,0.09,-272.74,-272.80,-8,528,-961,21.6,10.1,-11.2,21.7,10.1,-11.2,5.73,1.98,-8.3,27.9